[[{"header":{"parameterUnit":"m.s-1","parameterCategory":1,"la1":30.2991,"la2":30.254,"lo1":-89.0895,"lo2":-89.0444,"dy":0.0017,"dx":0.0017,"nx":28,"ny":28,"refTime":"2023-08-04T09:00:00:Z","depth":0,"parameterNumber":2,"parameterNumberName":"U-component_of_WINDS"},"data":[0,0,0,0,0,0,0,0,0,0,0,0,0,0,0,0,0,0,0,0,0,0,0,0,0,0,0,0,0,0,0,0,0,0,0,0,0,0,0,0,0,0,0,0,0,0,0,0,0,0,0,0,0,0,0,0,0,0,2.7106,2.7106,0,2.7166,2.7167,2.7167,2.7114,2.7112,2.711,2.7108,2.717,2.7174,2.7177,0,0,0,0,0,0,0,0,0,0,0,0,0,2.6943,2.6946,2.7106,2.7106,2.7107,2.7166,2.7167,2.7167,2.7115,2.7112,2.7109,2.7107,2.7169,2.7173,2.7178,0,0,0,0,0,0,0,0,0,0,0,0,0,2.701,2.6948,2.7105,2.7088,2.7087,2.7166,2.7167,2.7168,2.7115,2.7112,2.7109,2.7106,2.7168,2.7173,2.7178,2.7278,0,0,2.7195,2.7198,0,0,0,0,0,0,0,0,2.7006,2.7016,2.709,2.7089,2.7088,2.7129,2.7132,2.7205,2.7116,2.7104,2.7108,2.7104,2.7159,2.7165,2.7184,2.7281,2.7284,2.7196,2.7199,2.7202,2.7203,0,0,0,0,0,0,0,2.7001,2.7013,2.7129,2.7091,2.709,2.7076,2.7082,2.7146,2.7149,2.7105,2.7101,2.7109,2.7158,2.7179,2.7185,2.7284,2.7196,2.7201,2.7204,2.7206,2.7463,2.7466,0,0,0,0,0,0,2.6999,2.7009,2.7127,2.7131,2.7038,2.7082,2.7088,2.7119,2.7149,2.715,2.7112,2.7107,2.7171,2.7178,2.7187,2.7303,2.7201,2.7207,2.721,2.7459,2.7464,2.7467,0,0,0,0,0,0,2.6995,2.701,2.7125,2.7069,2.7083,2.7088,2.7123,2.7122,2.7142,2.7154,2.7154,2.7132,2.7168,2.7179,2.7255,2.7304,2.7209,2.7214,2.7455,2.7461,2.7465,2.7537,0,0,0,0,0,0,2.6991,2.7009,2.7047,2.7071,2.7086,2.7193,2.7126,2.7126,2.7152,2.7146,2.7173,2.7174,2.7167,2.7247,2.726,2.731,2.7219,2.7451,2.7458,2.7464,2.753,2.7544,2.7556,0,0,0,0,0,2.6985,2.7066,2.705,2.7064,2.7134,2.7196,2.7205,2.7194,2.7156,2.7194,2.7201,2.7173,2.7297,2.7255,2.727,2.7322,2.7448,2.7456,2.7463,2.7525,2.7542,2.7556,0,0,0,0,0,0,2.7049,2.7069,2.7051,2.7141,2.7167,2.7187,2.7234,2.7213,2.725,2.7243,2.7228,2.7235,2.7314,2.7326,2.7279,2.7418,2.7366,2.7377,2.7408,2.7424,2.7436,2.7431,2.7223,0,0,0,0,0,2.7074,2.7122,2.7137,2.7215,2.7229,2.723,2.7256,2.7246,2.7272,2.7283,2.7295,2.7322,2.7366,2.7396,2.7438,2.7532,2.7536,2.7575,2.7588,2.7598,2.7608,2.7656,2.7673,2.7493,2.7493,2.7493,0,0,2.7125,2.7142,2.7173,2.7228,2.7247,2.7297,2.7239,2.7295,2.7331,2.7291,2.7363,2.7373,2.7401,2.7486,2.7524,2.7498,2.7658,2.7608,2.7617,2.762,2.7666,2.7683,2.7698,2.7499,2.7498,2.7497,0,0,2.7243,2.7262,2.7328,2.7347,2.7376,2.7376,2.7391,2.7414,2.7419,2.749,2.746,2.7503,2.7581,2.7601,2.7622,2.7746,2.7721,2.776,2.7827,2.7874,2.7888,2.79,2.7942,2.7957,2.777,2.777,2.777,0,2.7303,2.7377,2.7365,2.7422,2.7445,2.7411,2.7476,2.7496,2.7537,2.7554,2.7525,2.762,2.7637,2.7724,2.7754,2.7773,2.7789,2.7756,2.7887,2.7899,2.791,2.795,2.7966,2.7774,2.7774,2.7773,2.7773,0,2.7448,2.75,2.755,2.7589,2.7619,2.768,2.7676,2.7707,2.7694,2.7696,2.7768,2.7787,2.7831,2.7851,2.7839,2.7937,2.7919,2.7889,2.7836,2.7932,2.7969,2.7984,2.7781,2.7779,2.7778,2.7777,0,0,2.7609,2.7639,2.7657,2.7673,2.7702,2.7741,2.78,2.7842,2.7868,2.7897,2.7945,2.8011,2.7981,2.8005,2.7995,2.8037,2.813,2.8,2.8001,2.8022,2.8236,2.8257,2.8275,2.8114,2.8117,2.8119,2.8232,0,2.7726,2.7828,2.7817,2.7914,2.796,2.7927,2.7978,2.8,2.8004,2.8043,2.8047,2.8092,2.8052,2.8065,2.8105,2.811,2.8172,2.8102,2.8157,2.8159,2.8149,2.8295,2.8318,2.8424,2.8247,2.825,2.8251,0,2.7877,2.791,2.8011,2.803,2.8049,2.8095,2.8131,2.8169,2.8193,2.8193,2.8218,2.82,2.8258,2.8204,2.8283,2.8235,2.8257,2.8263,2.8267,2.827,2.821,2.83,2.8458,2.8473,2.8274,2.8273,2.8271,0,2.7981,2.8051,2.812,2.8135,2.8159,2.8192,2.8204,2.8224,2.8249,2.8281,2.8297,2.8335,2.8356,2.8386,2.8378,2.834,2.8458,2.8404,2.8457,2.8458,2.8483,2.8481,2.8644,2.85,2.85,2.8499,2.8499,0,2.8112,2.8175,2.8166,2.8209,2.8277,2.8264,2.8331,2.8339,2.8357,2.8399,2.8374,2.8414,2.8402,2.8441,2.8436,2.85,2.8511,2.8511,2.8508,2.8512,2.8512,2.8525,2.8517,2.8504,2.8503,2.8502,2.8501,0,2.824,2.8237,2.8309,2.8325,2.8331,2.838,2.8394,2.8433,2.8434,2.8487,2.8499,2.85,2.8545,2.854,2.8591,2.8587,2.8666,2.8656,2.8658,2.8655,2.8707,2.8702,2.8884,2.8906,2.8749,2.8751,2.8752,0,2.8323,2.837,2.8391,2.8416,2.843,2.8473,2.8497,2.8486,2.8513,2.8542,2.8577,2.8619,2.8652,2.8725,2.873,2.8768,2.8757,2.8818,2.8763,2.8764,2.8755,2.8752,2.8755,2.8829,2.883,2.8832,2.8833,0,2.847,2.8465,2.8502,2.8538,2.8568,2.8596,2.8621,2.8644,2.8634,2.8666,2.871,2.8736,2.8786,2.8828,2.8863,2.8874,2.8852,2.8851,2.8864,2.8868,2.8866,2.8865,2.8685,2.8846,2.8845,2.8844,2.8843,2.8843,2.8576,2.8615,2.8635,2.8676,2.8693,2.8717,2.8754,2.8758,2.8795,2.8835,2.8826,2.8876,2.8896,2.8941,2.8956,2.8994,2.8972,2.8993,2.8998,2.9003,2.9008,2.8861,2.9001,2.9001,2.9,2.9,2.9,0,2.8719,2.873,2.8768,2.8803,2.8835,2.8811,2.8837,2.8865,2.8909,2.893,2.8962,2.9013,2.9052,2.906,2.9097,2.9126,2.9117,2.9136,2.9133,2.9136,2.9027,2.901,2.9143,2.9143,2.9143,2.9143,2.9143,2.9143,2.8797,2.8861,2.8859,2.8931,2.8941,2.8989,2.9006,2.9027,2.9043,2.91,2.9132,2.9137,2.9152,2.919,2.9225,2.9226,2.924,2.9264,2.9261,2.9158,2.9144,2.913,2.9114,2.9267,2.9267,2.9366,2.9367,2.9368]},{"header":{"parameterUnit":"m.s-1","parameterCategory":1,"la1":30.2991,"la2":30.254,"lo1":-89.0895,"lo2":-89.0444,"dy":0.0017,"dx":0.0017,"nx":28,"ny":28,"refTime":"2023-08-04T09:00:00:Z","depth":0,"parameterNumber":3,"parameterNumberName":"V-component_of_WINDS"},"data":[0,0,0,0,0,0,0,0,0,0,0,0,0,0,0,0,0,0,0,0,0,0,0,0,0,0,0,0,0,0,0,0,0,0,0,0,0,0,0,0,0,0,0,0,0,0,0,0,0,0,0,0,0,0,0,0,0,0,5.4171,5.4172,0,5.4236,5.4236,5.4237,5.4176,5.4173,5.4171,5.4168,5.4227,5.4231,5.4235,0,0,0,0,0,0,0,0,0,0,0,0,0,5.3989,5.3992,5.4171,5.4172,5.4173,5.4235,5.4236,5.4237,5.4176,5.4173,5.417,5.4167,5.4226,5.4231,5.4235,0,0,0,0,0,0,0,0,0,0,0,0,0,5.4062,5.3993,5.4171,5.415,5.4149,5.4235,5.4236,5.4237,5.4177,5.4173,5.4169,5.4166,5.4225,5.423,5.4236,5.4344,0,0,5.4253,5.4256,0,0,0,0,0,0,0,0,5.4058,5.4068,5.4152,5.4152,5.4151,5.4194,5.4193,5.4273,5.4178,5.4166,5.4168,5.4164,5.4219,5.4225,5.4245,5.4347,5.435,5.4254,5.4257,5.426,5.4262,0,0,0,0,0,0,0,5.4053,5.4065,5.4196,5.4154,5.4153,5.4135,5.4141,5.4208,5.4212,5.4167,5.4162,5.4171,5.4217,5.4239,5.4245,5.435,5.4254,5.4259,5.4262,5.4265,5.4543,5.4547,0,0,0,0,0,0,5.4051,5.4062,5.4194,5.4198,5.4094,5.4141,5.4148,5.4184,5.4211,5.4212,5.4174,5.4168,5.4231,5.4239,5.4247,5.4375,5.426,5.4265,5.4269,5.4539,5.4544,5.4548,0,0,0,0,0,0,5.4047,5.4063,5.4192,5.4129,5.4144,5.4148,5.4188,5.4187,5.4208,5.4217,5.4216,5.4196,5.4229,5.4239,5.4321,5.4376,5.4268,5.4273,5.4534,5.454,5.4546,5.4631,0,0,0,0,0,0,5.4042,5.4062,5.4105,5.413,5.4148,5.4267,5.4192,5.4191,5.4219,5.4212,5.4237,5.4238,5.4227,5.4312,5.4326,5.4382,5.4278,5.4529,5.4537,5.4544,5.4623,5.4639,5.4653,0,0,0,0,0,5.4036,5.4126,5.4108,5.4124,5.4202,5.427,5.4279,5.4267,5.4224,5.4266,5.4271,5.4237,5.4368,5.4321,5.4336,5.4394,5.4526,5.4535,5.4543,5.4617,5.4636,5.4653,0,0,0,0,0,0,5.4104,5.4129,5.4109,5.421,5.4239,5.426,5.4312,5.4288,5.4327,5.4318,5.4298,5.4305,5.4391,5.4401,5.4348,5.45,5.444,5.4452,5.449,5.4509,5.4523,5.4518,5.4282,0,0,0,0,0,5.4132,5.4188,5.4205,5.4292,5.4308,5.4308,5.4337,5.4325,5.4352,5.4363,5.4374,5.4401,5.4448,5.4479,5.4522,5.4625,5.4628,5.4672,5.4687,5.4699,5.4709,5.4762,5.4782,5.4577,5.4577,5.4577,0,0,5.4188,5.4208,5.4244,5.4306,5.4327,5.4383,5.4318,5.438,5.442,5.4372,5.445,5.4459,5.4487,5.4579,5.462,5.459,5.4767,5.471,5.472,5.4724,5.4773,5.4793,5.481,5.4583,5.4582,5.4581,0,0,5.4318,5.434,5.4415,5.4437,5.447,5.447,5.4488,5.4513,5.4517,5.4596,5.4561,5.4607,5.4689,5.471,5.4731,5.487,5.4839,5.4884,5.4961,5.5013,5.5029,5.5043,5.5091,5.5108,5.4895,5.4895,5.4895,0,5.4383,5.4468,5.4455,5.452,5.4548,5.4509,5.4583,5.4605,5.4649,5.4668,5.4634,5.4736,5.4752,5.4848,5.4882,5.4901,5.4919,5.4881,5.5028,5.5042,5.5055,5.51,5.5118,5.49,5.49,5.4899,5.4899,0,5.4545,5.4604,5.466,5.4707,5.4741,5.4809,5.4805,5.484,5.4825,5.4828,5.4907,5.4925,5.4971,5.4993,5.4978,5.5087,5.5067,5.5031,5.497,5.508,5.5122,5.5139,5.4908,5.4906,5.4904,5.4903,0,0,5.4719,5.4759,5.4779,5.48,5.4833,5.4877,5.4944,5.4991,5.5021,5.5053,5.5106,5.5177,5.5144,5.5168,5.5155,5.5201,5.5308,5.5159,5.5159,5.5185,5.5426,5.5452,5.5472,5.5288,5.5292,5.5294,5.5423,0,5.4849,5.4967,5.4958,5.5068,5.5121,5.5086,5.5143,5.5168,5.5173,5.5216,5.5219,5.5269,5.5223,5.5237,5.5281,5.5286,5.5356,5.5276,5.5335,5.5338,5.5328,5.5494,5.5522,5.5643,5.544,5.5442,5.5445,0,5.5017,5.5057,5.5173,5.5199,5.522,5.5273,5.5315,5.5358,5.5386,5.5385,5.5413,5.5392,5.5456,5.5395,5.5482,5.5428,5.5452,5.5457,5.5462,5.5465,5.5397,5.5501,5.5681,5.5699,5.5471,5.5468,5.5467,0,5.513,5.5213,5.5293,5.5312,5.5344,5.5381,5.5395,5.542,5.5448,5.5484,5.5502,5.5545,5.5568,5.56,5.559,5.5547,5.5679,5.5617,5.5678,5.5678,5.5706,5.5704,5.5891,5.5724,5.5724,5.5724,5.5723,0,5.5276,5.5347,5.5345,5.5394,5.5473,5.546,5.5538,5.5547,5.5569,5.5618,5.5589,5.5634,5.562,5.5664,5.5656,5.5728,5.5739,5.5739,5.5736,5.5741,5.5741,5.5754,5.5745,5.5728,5.5727,5.5727,5.5726,0,5.5415,5.5416,5.5501,5.5525,5.5532,5.5589,5.5608,5.5653,5.5655,5.5717,5.573,5.5733,5.5783,5.5777,5.5833,5.5828,5.5917,5.5904,5.5908,5.5905,5.5966,5.5959,5.6167,5.6192,5.6011,5.6012,5.6014,0,5.5507,5.5561,5.5592,5.5624,5.5641,5.5692,5.5722,5.5712,5.5743,5.5779,5.5819,5.5868,5.5905,5.5987,5.5992,5.6035,5.6022,5.6091,5.6027,5.6031,5.6021,5.6017,5.6021,5.6103,5.6105,5.6107,5.6108,0,5.5669,5.5667,5.5712,5.5759,5.5796,5.583,5.5862,5.5889,5.5881,5.5918,5.5971,5.6,5.6058,5.6106,5.6146,5.6157,5.6131,5.6129,5.6145,5.615,5.6149,5.6148,5.5941,5.6124,5.6122,5.6121,5.612,5.612,5.5786,5.5833,5.5862,5.5913,5.5936,5.5966,5.601,5.6018,5.6063,5.611,5.6101,5.616,5.6184,5.6235,5.6252,5.6296,5.627,5.6294,5.6299,5.6305,5.6311,5.6144,5.6303,5.6303,5.6302,5.6302,5.6302,0,5.5945,5.5962,5.601,5.6056,5.6096,5.6071,5.6105,5.6139,5.6191,5.6218,5.6257,5.6316,5.6362,5.6372,5.6415,5.6448,5.6437,5.646,5.6456,5.6459,5.6333,5.6314,5.6468,5.6468,5.6468,5.6468,5.6468,5.6468,5.6032,5.611,5.6112,5.6199,5.6215,5.6274,5.6296,5.6323,5.6344,5.6412,5.6451,5.6458,5.6477,5.6522,5.6562,5.6563,5.658,5.6607,5.6603,5.6485,5.6468,5.6452,5.6434,5.6611,5.6611,5.6726,5.6727,5.6728]}]]